This demonstration page uses our WeatherBlox Daily Observations layout. Learn more.

Left ArrowRight Arrow

Hourly Observations for August 22, 2015

Temp ( °F °C ) Dew Point ( °F °C ) Humidity (%) Winds ( mph kmh ) Pressure ( in mb ) Visibility ( mi km ) Precip ( " mm )
12:15 am 00:15 Clear 70 21 64 18 83 83 ESE 14 22 29.74 1007 9 14 0.00 0.00
12:35 am 00:35 Clear 70 21 64 18 83 83 SE 17 28 29.74 1007 8 13 0.00 0.00
12:55 am 00:55 Clear 70 21 64 18 83 83 E 16 26 29.74 1007 7 11 0.00 0.00
1:15 am 01:15 Mostly Clear 70 21 64 18 83 83 ESE 15 24 29.74 1007 7 11 0.00 0.00
1:35 am 01:35 Mostly Cloudy 70 21 64 18 83 83 ESE 18 30 29.74 1007 7 11 0.00 0.00
1:55 am 01:55 Cloudy 70 21 64 18 83 83 SE 18 30 29.74 1007 7 11 0.00 0.00
2:15 am 02:15 Cloudy 70 21 64 18 83 83 ESE 18 30 29.74 1007 7 11 0.00 0.00
2:35 am 02:35 Cloudy 70 21 64 18 83 83 ENE 17 28 29.74 1007 7 11 0.00 0.00
2:55 am 02:55 Mostly Cloudy 68 20 64 18 88 88 SE 16 26 29.74 1007 7 11 0.00 0.00
3:15 am 03:15 Mostly Cloudy 68 20 64 18 88 88 SE 17 28 29.74 1007 6 10 0.00 0.00
3:35 am 03:35 Mostly Clear 68 20 64 18 88 88 SE 15 24 29.74 1007 7 11 0.00 0.00
3:55 am 03:55 Mostly Cloudy 68 20 64 18 88 88 SSE 16 26 29.74 1007 5 8 0.00 0.00
4:15 am 04:15 Cloudy 68 20 64 18 88 88 SSE 17 28 29.74 1007 5 8 0.00 0.00
4:35 am 04:35 Cloudy 68 20 64 18 88 88 SSE 17 28 29.71 1006 5 8 0.00 0.00
4:55 am 04:55 Mostly Cloudy 68 20 64 18 88 88 SSE 17 28 29.71 1006 5 8 0.00 0.00
5:15 am 05:15 Partly Cloudy 68 20 63 17 83 83 SSE 18 30 29.71 1006 7 11 0.00 0.00
5:35 am 05:35 Mostly Clear 68 20 63 17 83 83 SSE 16 26 29.71 1006 7 11 0.00 0.00
5:55 am 05:55 Clear 66 19 63 17 88 88 SSE 17 28 29.71 1006 8 13 0.00 0.00
6:15 am 06:15 Clear 66 19 63 17 88 88 SSE 15 24 29.71 1006 10 16 0.00 0.00
6:35 am 06:35 Clear 66 19 63 17 88 88 SSE 15 24 29.71 1006 10 16 0.00 0.00
6:55 am 06:55 Sunny 66 19 63 17 88 88 SSE 14 22 29.71 1006 9 14 0.00 0.00
7:15 am 07:15 Sunny 66 19 63 17 88 88 SSE 15 24 29.71 1006 10 16 0.00 0.00
7:35 am 07:35 Sunny 68 20 63 17 83 83 SSE 18 30 29.71 1006 10 16 0.00 0.00
7:55 am 07:55 Sunny 68 20 63 17 83 83 SSE 13 20 29.71 1006 10 16 0.00 0.00
8:15 am 08:15 Sunny 68 20 63 17 83 83 S 15 24 29.71 1006 10 16 0.00 0.00
8:35 am 08:35 Sunny 70 21 63 17 78 78 S 17 28 29.71 1006 10 16 0.00 0.00
8:55 am 08:55 Mostly Sunny 70 21 63 17 78 78 SSE 21 33 29.65 1004 10 16 0.00 0.00
9:15 am 09:15 Partly Cloudy 70 21 64 18 83 83 SSE 21 33 29.65 1004 10 16 0.00 0.00
9:35 am 09:35 Mostly Cloudy 72 22 64 18 78 78 S 18 30 29.68 1005 10 16 0.00 0.00
9:55 am 09:55 Cloudy 72 22 64 18 78 78 S 24 39 29.68 1005 10 16 0.00 0.00
10:15 am 10:15 Cloudy 73 23 64 18 74 74 S 22 35 29.65 1004 10 16 0.00 0.00
10:35 am 10:35 Cloudy 73 23 64 18 74 74 S 23 37 29.65 1004 10 16 0.00 0.00
10:55 am 10:55 Cloudy 73 23 64 18 74 74 S 16 26 29.68 1005 10 16 0.00 0.00
11:15 am 11:15 Cloudy 75 24 66 19 74 74 S 18 30 29.68 1005 10 16 0.00 0.00
11:35 am 11:35 Mostly Cloudy 79 26 66 19 65 65 SSE 24 39 29.65 1004 10 16 0.00 0.00
11:55 am 11:55 Mostly Cloudy 79 26 66 19 65 65 SSW 16 26 29.68 1005 10 16 0.00 0.00
12:15 pm 12:15 Mostly Cloudy 81 27 66 19 62 62 SSW 21 33 29.65 1004 10 16 0.00 0.00
12:35 pm 12:35 Mostly Cloudy 81 27 66 19 62 62 SSW 16 26 29.68 1005 10 16 0.00 0.00
12:55 pm 12:55 Cloudy 81 27 66 19 62 62 SSW 15 24 29.68 1005 10 16 0.00 0.00
1:15 pm 13:15 Mostly Cloudy 82 28 66 19 58 58 WSW 13 20 29.68 1005 10 16 0.00 0.00
1:35 pm 13:35 Partly Cloudy 82 28 66 19 58 58 WSW 10 17 29.68 1005 10 16 0.00 0.00
1:55 pm 13:55 Partly Cloudy 82 28 66 19 58 58 W 12 19 29.71 1006 10 16 0.00 0.00
2:15 pm 14:15 Mostly Cloudy 82 28 66 19 58 58 WNW 9 15 29.71 1006 10 16 0.00 0.00
2:35 pm 14:35 Mostly Cloudy 82 28 66 19 58 58 WNW 9 15 29.71 1006 10 16 0.00 0.00
2:55 pm 14:55 Mostly Cloudy 84 29 66 19 55 55 NW 10 17 29.71 1006 10 16 0.00 0.00
3:15 pm 15:15 Mostly Cloudy 82 28 64 18 55 55 NNW 18 30 29.74 1007 9 14 0.00 0.00
3:35 pm 15:35 Cloudy 82 28 59 15 45 45 N 21 33 29.74 1007 5 8 0.00 0.00
3:55 pm 15:55 Partly Cloudy 82 28 59 15 45 45 N 21 33 29.74 1007 7 11 0.00 0.00
4:15 pm 16:15 Mostly Sunny 82 28 59 15 45 45 N 23 37 29.74 1007 8 13 0.00 0.00
4:35 pm 16:35 Mostly Cloudy 81 27 57 14 45 45 NNW 21 33 29.74 1007 8 13 0.00 0.00
4:55 pm 16:55 Mostly Cloudy 79 26 57 14 48 48 N 22 35 29.80 1009 8 13 0.00 0.00
5:15 pm 17:15 Mostly Cloudy 79 26 57 14 48 48 N 21 33 29.80 1009 7 11 0.00 0.00
5:35 pm 17:35 Mostly Cloudy 75 24 55 13 50 50 N 23 37 29.80 1009 6 10 0.00 0.00
5:55 pm 17:55 Partly Cloudy 73 23 54 12 50 50 N 18 30 29.80 1009 6 10 0.00 0.00
6:15 pm 18:15 Sunny 72 22 54 12 53 53 N 16 26 29.85 1011 6 10 0.00 0.00
6:35 pm 18:35 Mostly Sunny 72 22 54 12 53 53 N 16 26 29.83 1010 7 11 0.00 0.00
6:55 pm 18:55 Sunny 72 22 52 11 50 50 N 16 26 29.85 1011 7 11 0.00 0.00
7:15 pm 19:15 Sunny 72 22 52 11 50 50 N 13 20 29.85 1011 7 11 0.00 0.00
7:35 pm 19:35 Sunny 70 21 52 11 53 53 NNW 8 13 29.85 1011 7 11 0.00 0.00
7:55 pm 19:55 Sunny 68 20 54 12 60 60 NNW 9 15 29.85 1011 7 11 0.00 0.00
8:15 pm 20:15 Sunny 66 19 52 11 60 60 NNW 10 17 29.91 1013 7 11 0.00 0.00
8:35 pm 20:35 Clear 66 19 52 11 60 60 NNW 9 15 29.91 1013 7 11 0.00 0.00
8:55 pm 20:55 Clear 66 19 54 12 64 64 NNW 9 15 29.94 1014 8 13 0.00 0.00
9:15 pm 21:15 Clear 64 18 54 12 68 68 NW 9 15 29.97 1015 8 13 0.00 0.00
9:35 pm 21:35 Clear 64 18 54 12 68 68 N 12 19 29.97 1015 9 14 0.00 0.00
9:55 pm 21:55 Clear 64 18 48 9 56 56 N 15 24 30.00 1016 10 16 0.00 0.00
10:15 pm 22:15 Clear 64 18 45 7 49 49 N 18 30 30.00 1016 10 16 0.00 0.00
10:35 pm 22:35 Clear 64 18 45 7 49 49 N 20 31 30.00 1016 10 16 0.00 0.00
10:55 pm 22:55 Clear 63 17 45 7 52 52 N 20 31 30.00 1016 10 16 0.00 0.00
11:15 pm 23:15 Clear 63 17 45 7 52 52 N 17 28 30.03 1017 10 16 0.00 0.00
11:35 pm 23:35 Clear 63 17 43 6 49 49 N 17 28 30.03 1017 10 16 0.00 0.00
11:55 pm 23:55 Clear 61 16 43 6 52 52 N 20 31 30.09 1019 10 16 0.00 0.00

Powered by AerisWeather